Pittsfield, MA

9:00 PM EDT on March 27, 2017 (GMT -0400)
Pittsfield Municipal

Weather History for KPSF - September, 2012

Change the Weather History Date:

Saturday, September 22, 2012

  Actual Average Record
Temperature  
Mean Temperature 59 °F 56 °F  
Max Temperature 70 °F 67 °F 87 °F (1965)
Min Temperature 48 °F 46 °F 27 °F (1962)
Degree Days  
Heating Degree Days 6 9  
Month to date heating degree days 103 126  
Since 1 July heating degree days 127 204  
Cooling Degree Days 0 0  
Month to date cooling degree days 25 16  
Year to date cooling degree days 465 286  
Growing Degree Days 8 (Base 50)    
Moisture  
Dew Point 54 °F    
Average Humidity 83    
Maximum Humidity 100    
Minimum Humidity 66    
Precipitation  
Precipitation 0.62 in 0.13 in 1.01 in (1949)
Month to date precipitation 4.76 2.69  
Year to date precipitation 25.89 32.47  
Sea Level Pressure  
Sea Level Pressure 29.89 in    
Wind  
Wind Speed 6 mph (WSW)    
Max Wind Speed 20 mph    
Max Gust Speed 28 mph    
Visibility 7 miles    
Events Fog , Rain , Thunderstorm    
T = Trace of Precipitation, MM = Missing Value Source: NWS Daily Summary

Daily Weather History Graph

Daily Weather History Graph

Search for Another Location

Airport or City:

Trip Planner

Search our weather history database for the weather conditions in past years. The results will help you decide how hot, cold, wet, or windy it might be!

Date:

Astronomy

Sep. 22, 2012 Rise Set
Actual Time 6:41 AM EDT 6:49 PM EDT
Civil Twilight 6:12 AM EDT 7:17 PM EDT
Nautical Twilight 5:40 AM EDT 7:50 PM EDT
Astronomical Twilight 5:06 AM EDT 8:23 PM EDT
Moon 2:03 PM EDT (9/22) 11:44 PM EDT (9/22)
Length of Visible Light 13h 04m
Length of Day
12h 08m
Waxing Crescent, 48% of the Moon is Illuminated
Sep 22
Waxing Crescent
Sep 22
First Quarter
Sep 29
Full
Oct 8
Last Quarter
Oct 15
New

Hourly Weather History & Observations

Time (EDT) Temp. Dew Point Humidity Pressure Visibility Wind Dir Wind Speed Gust Speed Precip Events Conditions
12:45 AM 51.8 °F 50.0 °F 94% 30.01 in 10.0 mi Calm Calm - N/A   Partly Cloudy
12:54 AM 52.0 °F 50.0 °F 93% 29.97 in 10.0 mi Calm Calm - N/A   Partly Cloudy
1:52 AM 50.0 °F 48.2 °F 94% 30.00 in 1.8 mi Calm Calm - N/A   Mostly Cloudy
1:53 AM 48.9 °F 48.9 °F 100% 29.96 in 1.2 mi Calm Calm - N/A   Mostly Cloudy
1:57 AM 48.2 °F 48.2 °F 100% 30.00 in 0.2 mi Calm Calm - N/A Fog Fog
2:08 AM 50.0 °F 48.2 °F 94% 30.00 in 1.0 mi Calm Calm - N/A   Overcast
2:11 AM 50.0 °F 48.2 °F 94% 30.00 in 4.0 mi Calm Calm - N/A   Overcast
2:20 AM 48.2 °F 48.2 °F 100% 29.99 in 2.5 mi Calm Calm - N/A   Overcast
2:31 AM 48.2 °F 48.2 °F 100% 29.99 in 1.8 mi ENE 3.5 mph - N/A   Overcast
2:34 AM 50.0 °F 48.2 °F 94% 29.99 in 3.0 mi Calm Calm - N/A   Overcast
2:46 AM 50.0 °F 50.0 °F 100% 29.99 in 7.0 mi North 3.5 mph - N/A   Overcast
2:54 AM 51.1 °F 50.0 °F 96% 29.94 in 8.0 mi Calm Calm - N/A   Overcast
3:10 AM 51.8 °F 50.0 °F 94% 29.98 in 7.0 mi North 3.5 mph - N/A   Overcast
3:49 AM 51.8 °F 50.0 °F 94% 29.98 in 7.0 mi NE 3.5 mph - N/A   Overcast
3:54 AM 51.1 °F 50.0 °F 96% 29.93 in 8.0 mi Calm Calm - N/A   Overcast
4:54 AM 51.1 °F 50.0 °F 96% 29.92 in 7.0 mi NE 4.6 mph - N/A   Overcast
5:09 AM 51.8 °F 50.0 °F 94% 29.97 in 8.0 mi Calm Calm - N/A   Overcast
5:54 AM 52.0 °F 51.1 °F 97% 29.93 in 9.0 mi Calm Calm - N/A   Overcast
6:45 AM 51.8 °F 51.8 °F 100% 29.97 in 8.0 mi NE 3.5 mph - N/A   Overcast
6:54 AM 53.1 °F 51.1 °F 93% 29.92 in 7.0 mi Calm Calm - N/A   Overcast
7:54 AM 53.1 °F 52.0 °F 96% 29.92 in 8.0 mi ENE 4.6 mph - N/A   Overcast
8:54 AM 57.0 °F 53.1 °F 87% 29.91 in 10.0 mi Calm Calm - N/A   Overcast
9:35 AM 59.0 °F 53.6 °F 82% 29.94 in 10.0 mi SSE 4.6 mph - N/A   Overcast
9:54 AM 59.0 °F 54.0 °F 83% 29.90 in 10.0 mi Calm Calm - N/A   Overcast
10:54 AM 62.1 °F 55.0 °F 78% 29.86 in 10.0 mi Variable 5.8 mph - N/A   Overcast
11:43 AM 66.2 °F 57.2 °F 73% 29.88 in 10.0 mi SSW 11.5 mph 19.6 mph N/A   Scattered Clouds
11:54 AM 66.9 °F 57.0 °F 70% 29.83 in 10.0 mi South 11.5 mph 18.4 mph N/A   Partly Cloudy
12:54 PM 68.0 °F 57.0 °F 68% 29.80 in 10.0 mi SSW 16.1 mph 21.9 mph N/A   Clear
2:06 PM 68.0 °F 57.2 °F 68% 29.85 in 10.0 mi South 9.2 mph 18.4 mph N/A   Overcast
2:54 PM 66.0 °F 57.9 °F 75% 29.80 in 10.0 mi South 12.7 mph 19.6 mph N/A   Overcast
3:14 PM 66.2 °F 57.2 °F 73% 29.84 in 10.0 mi South 12.7 mph - N/A   Overcast
3:54 PM 66.9 °F 59.0 °F 76% 29.79 in 10.0 mi South 9.2 mph 20.7 mph N/A   Mostly Cloudy
4:54 PM 66.0 °F 59.0 °F 78% 29.78 in 10.0 mi Variable 6.9 mph - N/A   Partly Cloudy
5:54 PM 66.0 °F 59.0 °F 78% 29.76 in 10.0 mi South 9.2 mph 16.1 mph N/A   Overcast
6:54 PM 64.9 °F 60.1 °F 84% 29.77 in 10.0 mi South 13.8 mph 21.9 mph N/A   Mostly Cloudy
7:02 PM 64.4 °F 60.8 °F 88% 29.81 in 10.0 mi SSE 9.2 mph 20.7 mph N/A   Mostly Cloudy
7:54 PM 64.9 °F 60.1 °F 84% 29.76 in 10.0 mi Calm Calm - N/A   Overcast
8:54 PM 61.0 °F 57.0 °F 87% 29.78 in 7.0 mi North 11.5 mph 21.9 mph 0.01 in Rain Light Rain
9:00 PM 60.8 °F 57.2 °F 88% 29.84 in 2.5 mi West 11.5 mph 21.9 mph 0.05 in Rain Rain
9:06 PM 59.0 °F 57.2 °F 94% 29.82 in 0.8 mi North 4.6 mph 16.1 mph 0.17 in Rain Heavy Rain
9:12 PM 59.0 °F 57.2 °F 94% 29.82 in 1.0 mi WNW 5.8 mph - 0.21 in Rain , Thunderstorm Heavy Thunderstorms and Rain
9:32 PM 59.0 °F 57.2 °F 94% 29.83 in 1.2 mi WNW 5.8 mph - 0.47 in Rain Heavy Rain
9:42 PM 59.0 °F 57.2 °F 94% 29.84 in 3.0 mi WNW 5.8 mph - 0.48 in Rain Light Rain
9:54 PM 59.0 °F 57.9 °F 96% 29.80 in 3.0 mi West 3.5 mph - 0.51 in Rain Light Rain
10:46 PM 57.2 °F 57.2 °F 100% 29.83 in 3.0 mi NW 3.5 mph - 0.10 in Rain Light Rain
10:54 PM 57.9 °F 55.9 °F 93% 29.80 in 6.0 mi West 6.9 mph - 0.10 in Rain Light Rain
11:12 PM 57.2 °F 55.4 °F 94% 29.84 in 9.0 mi WNW 5.8 mph - 0.00 in Rain Light Rain
11:23 PM 57.2 °F 55.4 °F 94% 29.83 in 10.0 mi West 3.5 mph - 0.00 in   Overcast
11:54 PM 57.0 °F 55.0 °F 93% 29.79 in 10.0 mi West 5.8 mph - 0.00 in   Overcast